Location: Santaluz Observatory
(32.9930°N, 117.1510°W)
Time: 05:54:33
(UTC-07:00)

Daily predictions for brighter satellites

Satellite Brightness Start Highest point End
(mag) Time Altitude Azimuth Time Altitude Azimuth Time Altitude Azimuth
USA 229 DEB 4.2 00:05:04 10° NNW 00:10:39 58° NW 00:10:39 58° NW
USA 229 4.2 00:05:10 10° NNW 00:10:45 58° NW 00:10:45 58° NW
Cosmos 2369 Rocket 3.9 00:25:02 27° NNE 00:25:02 27° NNE 00:27:29 10° NNE
Lacrosse 5 4.2 00:45:31 20° NNE 00:45:31 20° NNE 00:47:07 10° NNE
CZ-2C R/B 4.4 00:46:07 10° NNE 00:48:23 27° NNE 00:48:23 27° NNE
NOSS 3-1 (C) 4.2 00:55:30 10° NNW 01:02:08 68° NNW 01:02:08 68° NNW
Cosmos 1943 Rocket 3.8 01:15:38 29° NNE 01:15:38 29° NNE 01:18:19 10° NNE
SeaSat 1 4.2 01:53:08 28° N 01:53:08 28° N 01:55:28 10° NNW
Cosmos 2369 Rocket 4.5 02:06:49 14° NW 02:06:49 14° NW 02:09:17 10° NNW
Cosmos 2219 4.1 02:09:28 10° NNW 02:13:38 45° NNE 02:13:38 45° NNE
NOSS 3-3 (A) 4.3 02:18:32 62° N 02:18:32 62° N 02:23:59 10° NNE
NOSS 3-3 (C) 4.3 02:18:38 62° N 02:18:38 62° N 02:24:05 10° NNE
CZ-3B DEB 4.1 01:50:47 10° NW 02:20:14 74° WSW 02:23:43 54° S
CZ-2D R/B 4.3 02:21:04 10° ENE 02:24:13 16° E 02:24:49 15° E
Tsikada Rocket 4.5 02:20:48 10° N 02:25:40 54° NNW 02:25:40 54° NNW
ATLAS CENTAUR R/B 3.9 02:40:19 20° E 02:40:19 20° E 02:43:09 10° ENE
ATLAS 2AS CENTAUR R/B 2.8 02:35:36 10° NNW 02:43:17 73° W 02:43:17 73° W
IRAS Rocket 4.4 02:49:09 10° NNE 02:54:07 69° NNW 02:54:07 69° NNW
Cosmos 1943 Rocket 4.4 02:57:08 13° NW 02:57:08 13° NW 02:59:28 10° NNW
NPP 4.3 02:58:56 10° N 03:03:14 45° NW 03:03:14 45° NW
Milstar 3 Cent rocket 3.2 03:08:38 37° SE 03:08:38 37° SE 03:14:04 10° E
Cosmos 468 Rocket 4.1 03:12:24 66° E 03:12:24 66° E 03:17:26 10° NNE
Resurs 1-4 Rocket 2.5 03:12:24 10° NNE 03:17:33 53° E 03:18:17 49° SE
Cosmos 1707 4.0 03:14:18 10° N 03:17:29 41° NE 03:17:29 41° NE
ERS-2 4.1 03:16:34 10° N 03:18:18 24° NNW 03:18:18 24° NNW
Cosmos 1464 Rocket 3.8 03:19:50 69° WSW 03:20:22 73° W 03:26:40 10° N
ADEOS 4.0 03:28:20 10° N 03:33:11 46° WNW 03:33:11 46° WNW
Cosmos 1898 Rocket 3.9 03:28:07 10° N 03:33:25 61° ENE 03:36:44 23° SE
Okean 3 Rocket 3.7 03:29:58 10° N 03:34:23 69° E 03:34:38 67° ESE
GPS 2-04 Rocket1 3.5 03:35:57 44° E 03:35:57 44° E 03:38:39 10° ENE
NOSS 2-1 (D) 3.9 03:36:42 49° NNW 03:36:42 49° NNW 03:40:11 10° NNE
NOSS 2-1 (C) 3.9 03:38:00 50° NNW 03:38:00 50° NNW 03:41:31 10° NNE
CZ-3 R/B 4.2 03:24:12 31° SW 03:39:08 48° SSE 03:49:18 10° E
Meteor 2-5 Rocket 3.7 03:34:16 10° NNW 03:40:07 76° W 03:41:39 51° SSW
ASTRO E2 3.4 03:42:59 47° ESE 03:42:59 47° ESE 03:46:00 10° E
Cosmos 1656 3.6 03:43:47 55° SSW 03:45:07 89° WNW 03:50:50 10° NNE
OAO 3 Rocket 3.1 03:47:13 61° SSE 03:47:13 61° SSE 03:51:24 10° ESE
Cosmos 841 Rocket 4.0 03:45:01 37° SSE 03:46:50 56° ESE 03:52:00 10° NNE
Uosat 12 SS-18 rocket 4.4 03:42:24 10° NNW 03:47:19 75° WSW 03:53:16 10° SSE
Cosmos 1937 Rocket 3.9 03:45:56 10° N 03:51:03 62° ENE 03:56:12 10° SSE
NOSS 2-1 (E) 4.0 03:52:35 41° NW 03:52:35 41° NW 03:56:34 10° NNE
Cosmos 2082 3.5 03:48:30 10° NNW 03:54:08 81° WSW 03:58:07 20° SSE
Cosmos 1697 Rocket 2.7 03:52:13 43° S 03:54:08 80° ESE 03:59:50 10° NNE
SME Rocket 3.7 03:53:50 46° SSW 03:55:13 65° W 04:02:05 10° NNW
ARIANE 5 R/B 2.9 03:50:22 10° N 03:55:15 46° WNW 03:55:57 43° W
Cosmos 1763 Rocket 3.5 03:54:39 44° S 03:56:22 82° ESE 04:01:37 10° NNE
Cosmos 44 4.0 03:55:31 10° NW 03:59:09 36° W 03:59:09 36° W
Cosmos 1980 Rocket 2.8 03:57:47 25° S 04:00:48 52° ESE 04:06:16 10° NNE
Meteor 2-12 Rocket 4.4 03:59:27 39° SSW 04:01:45 69° W 04:07:47 10° N
CZ-2D R/B 2.4 03:59:15 10° N 04:04:33 53° WNW 04:06:09 40° WSW
Cosmos 1766 3.2 04:04:50 61° WSW 04:05:05 63° W 04:09:02 10° N
NOSS 3-4 (A) 4.5 03:59:09 10° NNW 04:06:07 57° ENE 04:13:25 10° SE
NOSS 3-4 (C) 4.5 03:59:15 10° NNW 04:06:15 57° ENE 04:13:35 10° SE
CZ-2D R/B 3.5 04:02:21 10° NNE 04:06:42 89° WSW 04:08:07 43° SSW
Cosmos 2227 Rocket 2.2 04:02:00 10° NNW 04:07:33 57° WSW 04:10:49 24° S
SL-16 R/B 2.6 04:06:09 29° SSW 04:09:13 55° WSW 04:15:17 10° NNW
Cosmos 1758 3.8 04:08:08 29° SSE 04:10:01 60° E 04:13:59 10° NNE
Cosmos 2322 Rocket 4.3 04:06:04 10° SSE 04:10:15 22° E 04:14:26 10° NE
MOS 1-B 4.4 04:05:47 10° N 04:11:29 61° WNW 04:14:03 33° SW
Delta 7925 Rocket 4.0 04:11:06 36° SSW 04:11:37 37° S 04:16:05 10° ESE
Okean O Rocket 1.7 04:09:01 10° NNE 04:13:24 72° ESE 04:15:43 27° S
Cosmos 405 Rocket 4.2 04:10:38 10° NW 04:13:02 24° WNW 04:13:02 24° WNW
IRS-1D 4.4 04:11:02 10° N 04:15:20 30° WNW 04:16:19 28° W
Cosmos 2298 Rocket 4.4 04:11:39 10° NNW 04:16:37 42° W 04:18:18 33° SW
Cosmos 1953 2.3 04:15:40 32° S 04:17:28 79° E 04:21:32 10° N
ATLAS CENTAUR R/B 2.5 04:16:40 31° W 04:18:15 40° WNW 04:23:00 10° NNE
UNK 4.2 04:17:52 37° WSW 04:18:37 40° W 04:23:02 10° NNW
UNKNOWN OBJECT B 3.3 04:16:09 10° N 04:19:49 39° WNW 04:20:20 37° W
EO 1 Del DPAF 4.1 04:28:31 31° W 04:28:31 31° W 04:31:56 10° NW
Cosmos 2297 Rocket 2.3 04:24:09 10° NNW 04:29:37 53° WSW 04:35:04 10° S
IRS-1C Rocket 4.1 04:24:23 10° N 04:29:37 70° WNW 04:33:06 22° SSW
Cosmos 2360 4.5 04:26:44 16° S 04:31:15 68° ESE 04:36:55 10° NNE
USA 81 4.2 04:26:43 10° S 04:31:58 75° E 04:37:15 10° N
Cosmos 1076 Rocket 3.7 04:29:46 10° NNW 04:33:57 49° W 04:36:25 22° SSW
ADEOS II 3.8 04:29:19 10° NE 04:33:58 31° E 04:38:34 10° SSE
GEOS 3 Rocket 4.1 04:29:32 10° S 04:34:17 35° WSW 04:39:01 10° NW
Cosmos 540 Rocket 4.0 04:30:24 12° S 04:35:09 58° ESE 04:40:14 10° NNE
Meteor 1-24 Rocket 4.3 04:32:42 10° NNW 04:37:59 39° W 04:42:02 17° SSW
SL-16 R/B 3.4 04:35:19 10° S 04:40:31 39° ESE 04:45:45 10° NE
CZ-2C R/B 3.7 04:36:12 10° S 04:40:55 74° WSW 04:45:36 10° NNW
Cosmos 1805 3.4 04:39:50 24° SSW 04:41:55 53° W 04:45:45 10° N
Aureole 1 Rocket 4.3 04:39:59 10° S 04:44:55 58° E 04:51:31 10° NNE
PAYLOAD B 4.3 04:39:57 10° N 04:45:30 67° WNW 04:50:28 13° SSW
Cosmos 1378 4.1 04:43:35 10° NNW 04:46:53 29° W 04:48:15 23° SW
Cosmos 1766 Rocket 4.1 04:44:02 10° NNW 04:48:08 39° W 04:51:31 14° SSW
Cosmos 1408 Rocket 4.2 04:44:21 10° NNW 04:48:20 35° W 04:51:14 17° SSW
Okean-O 3.2 04:46:52 10° NNE 04:51:15 60° E 04:55:36 10° S
Cosmos-2242 3.7 04:49:34 20° SW 04:51:58 35° W 04:55:58 10° NNW
SL-8 R/B 4.5 04:48:18 10° WNW 04:52:24 29° SW 04:56:29 10° S
Cosmos 1441 Rocket 4.0 04:50:45 10° NNW 04:54:19 33° W 04:57:13 14° SSW
Resurs 1-4 Rocket 3.9 04:53:49 10° NNW 04:56:53 16° WNW 04:59:22 12° W
MOZ.5/SAFIR/RUBIN 5/SL-8 3.9 04:52:43 10° S 04:57:21 56° W 05:01:59 10° NNW
Cosmos 1733 3.4 04:58:27 10° S 05:02:12 71° E 05:05:59 10° N
CZ-4B R/B 3.6 04:57:38 10° N 05:02:55 47° WNW 05:08:06 10° SW
Cosmos 1842 Rocket 3.7 05:00:13 10° SSW 05:04:37 57° W 05:09:02 10° N
Meteor 1-21 Rocket 4.4 04:59:08 10° NNW 05:04:59 64° W 05:10:49 10° S
CZ-4B R/B 3.4 05:01:35 10° N 05:05:17 37° WNW 05:08:25 12° SW
Feng Yun 1-1 Rocket 4.4 05:01:01 10° NNE 05:06:40 78° ESE 05:12:08 10° S
PSLV R/B 3.5 05:04:53 10° N 05:09:07 85° WNW 05:13:22 10° SSW
ISS -0.7 05:08:20 10° NNW 05:11:05 24° NE 05:13:49 10° E
Cosmos 2227 4.4 05:05:30 10° NNW 05:11:17 82° ENE 05:17:02 10° SSE
GRACE-1 4.0 05:09:23 10° S 05:12:14 82° E 05:15:06 10° N
GRACE-2 4.0 05:09:49 10° S 05:12:40 82° E 05:15:32 10° N
Cosmos 2026 Rocket 4.1 05:07:32 10° NNW 05:13:43 56° W 05:19:47 10° SSW
GPS 2-04 Rocket1 3.1 05:11:02 10° W 05:14:51 55° N 05:18:26 10° ENE
Cosmos 332 Rocket 3.9 05:10:30 10° SSW 05:15:12 57° WNW 05:19:57 10° N
Cosmos 1125 Rocket 3.5 05:16:25 10° NNW 05:21:33 62° WSW 05:26:39 10° S
ASTRO E2 2.9 05:18:33 10° W 05:22:30 53° S 05:26:27 10° ESE
Cosmos 372 Rocket 4.1 05:22:41 10° NNW 05:27:48 84° ENE 05:32:53 10° SSE
OAO 3 Rocket 4.5 05:26:25 10° W 05:29:50 20° SSW 05:33:11 10° SSE
